Other Public Products
Issued by NWS Grand Forks, ND

Home | Current Version | Previous Version | Text Only | Print | Product List | Glossary Off
Versions: 1 2 3 4 5 6 7 8 9 10 11 12 13 14 15 16 17 18 19 20 21 22 23 24 25 26 27 28 29 30 31 32 33 34 35 36 37 38 39 40 41 42 43 44 45 46 47 48 49 50

000
FPUS83 KFGF 202131
OPUFGF
PRAIRIE TO PINES WEATHER ROUNDUP
NATIONAL WEATHER SERVICE EASTERN NORTH DAKOTA/GRAND FORKS ND
300 PM CST MON NOV 20 2017

 **SATELLITE DATA USED TO AUGMENT SKY COVER AT AUTOMATED STATIONS**
 *****  WEATHER ACROSS EASTERN NORTH DAKOTA  *****

CITY           SKY/WX    TMP DP  RH WIND       PRES   REMARKS
GRAND FORKS    CLOUDY    42  30  62 W13       29.28R
GRND FORKS AFB CLOUDY    44  27  52 W17G23    29.28R
GRND FORKS NWS NOT AVBL
BUXTON           N/A     46  28  49 W20         N/A
DEVILS LAKE    FAIR      41  30  65 W28G33    29.32R
FARGO          FAIR      54  26  34 W16       29.34S
WAHPETON ARPT  NOT AVBL
$$

 *****  WEATHER ACROSS CENTRAL AND WESTERN NORTH DAKOTA  *****

CITY           SKY/WX    TMP DP  RH WIND       PRES   REMARKS
JAMESTOWN      FAIR      54  25  32 W20G25    29.36F
BISMARCK       FAIR      59  25  27 NW23G38   29.49R
MINOT          FAIR      39  27  62 W33G51    29.48R
MINOT AFB      FAIR      36  26  67 NW37G46   29.45R
GARRISON         N/A     41  30  65 NW28G38   29.50R
WILLISTON      PTSUNNY   38  25  59 NW23G30   29.62R
DICKINSON      FAIR      50  25  37 NW26G39   29.54R
HETTINGER      FAIR      54  20  26 NW23G35   29.59R
$$

 *****  OTHER OBSERVATIONS NORTHEAST NORTH DAKOTA  *****

CITY           SKY/WX    TMP DP  RH WIND       PRES   REMARKS
WALHALLA       FAIR      43  30  61 W21G30    29.23R
LANGDON        MOCLDY    41  32  70 W29G39    29.27R
CAVALIER       FAIR      43  28  56 W21G30    29.23R
GRAFTON        FAIR      41  30  65 W24G31    29.27S
CANDO          FAIR      39  30  70 W24G35    29.34R
FORT TOTTEN      N/A     45  28  51 W9        29.95
ROLLA          MOCLDY    37  30  75 NW32G40   29.31R
RUGBY          FAIR      39  30  70 W37G44    29.38R
 ***** THE ABOVE OBSERVATIONS ARE NON NWS ARE NOT QUALITY
        CONTROLLED AND MAY MIS-REPORT RAIN FOR SNOW...
$$

 *****  OTHER OBSERVATIONS SOUTHEAST NORTH DAKOTA *****

CITY           SKY/WX    TMP DP  RH WIND       PRES   REMARKS
COOPERSTOWN    FAIR      45  30  57 W21       29.35R
VALLEY CITY    FAIR      52  23  32 W25G33    29.37S
OAKES            N/A     55  21  26 NW24G30   29.41S
GWINNER          N/A     57  21  24 NW21      29.40S
SHEYENNE NWR     N/A     57  22  26 NW16      29.95
BUFFALO          N/A     53  21  28 SW18        N/A
WYNDMERE       NOT AVBL
 ***** THE ABOVE OBSERVATIONS ARE NON NWS ARE NOT QUALITY
       CONTROLLED AND MAY MIS-REPORT RAIN FOR SNOW...
$$

  *****  WEATHER ACROSS NORTHERN MINNESOTA  *****

CITY           SKY/WX    TMP DP  RH WIND       PRES   REMARKS
FLAG ISLAND    CLOUDY    36  28  75 S9        29.15F
WARROAD        FAIR      37  30  75 SW12      29.19S
ROSEAU         FAIR      37  30  75 SW13      29.19S
HALLOCK        FAIR      39  30  70 W17       29.22R
THF RVR FALLS  PTSUNNY   40  28  62 SW18      29.25F
HALSTAD          N/A     51  27  39 W14         N/A
FOSSTON        FAIR      39  28  65 SW12      29.28F
BAUDETTE       CLOUDY    40  27  59 S10       29.16F
WASKISH        FAIR      37  30  75 SW6       29.23S
CROOKSTON      FAIR      43  30  61 W12       29.29R
$$
  *****  WEATHER ACROSS CENTRAL AND WEST MINNESOTA  *****

CITY           SKY/WX    TMP DP  RH WIND       PRES   REMARKS
BEMIDJI        FAIR      43  25  49 SW14      29.27R
PARK RAPIDS    FAIR      43  27  53 W10       29.31F
WADENA         FAIR      43  27  52 W10G17    29.35R
DETROIT LAKES  FAIR      45  28  53 W8        29.35S
MOORHEAD       FAIR      52  25  35 W14       29.35S
FERGUS FALLS   FAIR      46  27  46 W10       29.40R
ELBOW LAKE     FAIR      44  31  60 SW8       29.40R
MORRIS MN      FAIR      46  30  53 W6        29.39S
STAPLES        FAIR      41  27  56 SW6       29.34S
WHEATON        FAIR      52  19  28 W7        29.42R
$$
  *****  WEATHER ELSEWHERE ACROSS MINNESOTA  *****

CITY           SKY/WX    TMP DP  RH WIND       PRES   REMARKS
DULUTH         FAIR      33  28  81 S10       29.34F WCI  25
INTRNTL FALLS  CLOUDY    41  25  53 S8G17     29.21F
ELY            FAIR      39  27  60 S7        29.27F
CLOQUET        FAIR      37  27  65 S7        29.33F
BRAINERD       FAIR      40  28  62 S10       29.34F
HIBBING        FAIR      40  26  57 S7        29.28F
ALEXANDRIA     FAIR      42  29  59 SW12      29.37F
SAINT CLOUD    FAIR      39  30  70 S8        29.41S
MINNEAPOLIS    CLOUDY    46  31  55 SW7       29.46S
$$

  *****  WEATHER ACROSS SOUTH DAKOTA  *****

CITY           SKY/WX    TMP DP  RH WIND       PRES   REMARKS
SIOUX FALLS    PTSUNNY   49  28  44 SW3       29.53R
BROOKINGS      FAIR      54  24  31 W13       29.48F
WATERTOWN      FAIR      51  24  34 W10       29.44S
HURON          FAIR      63  18  17 W20G28    29.48S
SISSETON         N/A     52  25  35 W16G28    29.39S
ABERDEEN       FAIR      60  21  22 W16       29.45R
MITCHELL       FAIR      60  24  25 W7        29.52S
PIERRE         FAIR      62  19  19 NW20G29   29.53R
MOBRIDGE       FAIR      57  19  22 NW18      29.49R
RAPID CITY     FAIR      65  18  16 N24G31    29.63R
$$

  *****  SOME WEATHER IN NEARBY STATES *****

CITY           SKY/WX    TMP DP  RH WIND       PRES   REMARKS
GLASGOW MT     CLOUDY    36  19  50 NW18      29.71R
GREAT FALLS MT CLOUDY    37  26  64 NE16      29.72R
CHEYENNE WY    FAIR      56   6  13 NW29G48   29.80F
SCOTTSBLUFF NE FAIR      60  14  16 NW32G43   29.73R
OMAHA NE       PTSUNNY   57  26  30 S10       29.59F
DES MOINES IA  CLOUDY    61  24  24 SW22G35   29.60F
DAVENPORT IA   FAIR      57  31  37 S16G28    29.71F
CHICAGO IL     PTSUNNY   52  33  48 S22G31    29.76F
EAU CLAIRE WI  FAIR      47  29  49 S9        29.47F
LA CROSSE WI   FAIR      53  32  44 S15       29.52F
$$

  *****  SOME NATIONAL WEATHER *****

CITY           SKY/WX    TMP DP  RH WIND       PRES   REMARKS
LA GUARDIA NY  FAIR      47  22  37 W21G26    30.06R
RALEIGH NC     FAIR      56  24  29 CALM      30.22F
ATLANTA GA     PTSUNNY   58  31  35 SE7       30.16F
NEW ORLEANS LA FAIR      61  41  47 NE6       30.13F
OKLAHOMA CITY  FAIR      64  25  22 S23G36    29.90S
ALBUQUERQUE NM PTSUNNY   57  -2   9 CALM      30.10F
SALT LAKE CITY CLOUDY    45  34  65 NW9       30.14R
LOS ANGELES CA PTSUNNY   68  55  63 W9        30.01F
BOISE ID       CLOUDY    46  39  76 SE18G29   29.93F
SEATTLE WA     CLOUDY    48  46  93 SW8       29.80R
$$

*** WEATHER ACROSS MANITOBA...SASKATCHEWAN AND ONTARIO ***
                ***ONTARIO***

CITY           SKY/WX    TMP DP  RH WIND       PRES   REMARKS
GERALDTON      LGT SNOW  25  23  93 SE6       29.45F WCI  18
THUNDER BAY    CLOUDY    28  27  93 CALM      29.41F
SIOUX LOOKOUT  CLOUDY    27  23  86 SE6       29.21F WCI  20
TORONTO        MOCLDY    43  28  56 SW10G18   29.87F
BIG TROUT LK   CLEAR      7   3  85 SW2       29.49S
PICKLE LAKE    LGT SNOW  14  12  92 E12       29.31F VSB 3/4 WCI   0
DRYDEN         CLOUDY    30  25  80 S7        29.17F WCI  23
KENORA         CLOUDY    34  27  75 S8        29.15F
$$
                *** MANITOBA***

CITY           SKY/WX    TMP DP  RH WIND       PRES   REMARKS
BRANDON        PTSUNNY   28  21  74 NW39G48   29.31R WCI  11
DAUPHIN        LGT SNOW  23  19  86 NW10G17   29.34R WCI  12
ISLAND LAKE    FLURRIES   9   5  85 E12G20    29.42S WCI  -6
PILOT MOUND      N/A     37  30  75 W17G28      N/A
THE PAS        LGT SNOW  10   7  85 N12G18    29.51R VSB 1   WCI  -4
THOMPSON       MOCLDY     7   3  85 N6        29.59R WCI  -3
WINNIPEG       CLOUDY    36  30  80 NW13      29.18R
LYNN LAKE      FLURRIES   5   1  85 NW5       29.66S WCI  -4
CHURCHILL      FLURRIES  19  18  93 N18       29.56R WCI   4
GILLAM         FLURRIES  12   7  79 NW5       29.57  WCI   4
$$
                ***SASKATCHEWAN***

CITY           SKY/WX    TMP DP  RH WIND       PRES   REMARKS
ESTEVAN        CLOUDY    27  19  74 NW32G46   29.57R WCI  10
KINDERSLEY     MOSUNNY    7   0  72 NW21G31   29.80R WCI -13
LLOYDMINSTER   PTSUNNY    0  -6  78 NW22G30   29.80R WCI -23
PRINCE ALBERT  FLURRIES  12   3  67 NW15G25   29.66R WCI  -4
REGINA         LGT SNOW  18  12  79 NW29      29.63R BLWGSNOWWCI  -2
YORKTON        LGT SNOW  18  12  79 NW28G35   29.46R WC



USA.gov is the U.S. government's official web portal to all federal, state and local government web resources and services.